Вернуться в каталог

COSMOS 2428

АктивенНавигацияLEO
NORAD 31792·PAYLOAD·🇷🇺 Russia

Запущен Jun 29, 2007 с Baikonur Cosmodrome

Loading…

Ближайшие Пролёты (ближайшие 24 часа)

TLE

СвежийSource: Space-Track

Эпоха: Sep 14, 2026, 23:34 UTC

1 31792U 07029A   26257.98235283  .00000048  00000-0  51381-4 0  9996
2 31792  70.9442 165.9636 0010745 329.9103  30.1399 14.12976505990834

Отслеживайте COSMOS 2428 в реальном времени с AllMySat

Download on the App Store